This demonstration page uses our WeatherBlox Daily Observations layout. Learn more.

Hourly Observations for December 13, 2017

Temp ( °F °C ) Dew Point ( °F °C ) Humidity (%) Winds ( mph kmh ) Pressure ( in mb ) Visibility ( mi km ) Precip ( " mm )
12:15 am 00:15 Clear 41 5.2 22 -5.6 46 46 W 13 20 29.85 1011 10 16.09344 0 0
12:35 am 00:35 Clear 42 5.6 22 -5.6 45 45 W 13 20 29.85 1011 10 16.09344 0 0
12:55 am 00:55 Clear 41 5 22 -5.6 47 47 W 14 22 29.85 1011 10 16.09344 0 0
1:15 am 01:15 Clear 41 5.2 22 -5.8 45 45 W 12 19 29.83 1010 10 16.09344 0 0
1:35 am 01:35 Partly Cloudy 40 4.5 21 -6 47 47 W 13 20 29.83 1010 10 16.09344 0 0
1:55 am 01:55 Partly Cloudy 42 5.3 21 -6.1 44 44 WNW 9 15 29.83 1010 10 16.09344 0 0
2:15 am 02:15 Clear 42 5.8 20 -6.4 42 42 WNW 12 19 29.83 1010 10 16.09344 0 0
2:35 am 02:35 Clear 41 5 20 -6.5 44 44 WNW 13 20 29.85 1011 10 16.09344 0 0
2:55 am 02:55 Clear 39 4.1 21 -6.1 48 48 NW 12 19 29.88 1012 10 16.09344 0 0
3:15 am 03:15 Mostly Cloudy 40 4.4 21 -6.1 47 47 WNW 10 17 29.85 1011 10 16.09344 0 0
3:35 am 03:35 Cloudy 40 4.5 21 -6 47 47 WNW 12 19 29.85 1011 10 16.09344 0 0
3:55 am 03:55 Mostly Cloudy 40 4.2 21 -6 48 48 WNW 15 24 29.85 1011 10 16.09344 0 0
4:15 am 04:15 Partly Cloudy 41 4.8 21 -5.9 46 46 WNW 15 24 29.88 1012 10 16.09344 0 0
4:35 am 04:35 Mostly Cloudy 42 5.4 21 -6.1 44 44 WNW 12 19 29.88 1012 10 16.09344 0 0
4:55 am 04:55 Cloudy 43 6 21 -6.1 42 42 WNW 13 20 29.88 1012 10 16.09344 0 0
5:15 am 05:15 Cloudy 44 6.4 21 -6 41 41 NW 15 24 29.88 1012 10 16.09344 0 0
5:35 am 05:35 Mostly Cloudy 45 7 22 -5.6 41 41 NW 14 22 29.88 1012 10 16.09344 0 0
5:55 am 05:55 Partly Cloudy 46 7.7 22 -5.6 39 39 WNW 15 24 29.91 1013 10 16.09344 0 0
6:15 am 06:15 Clear 48 8.7 22 -5.3 37 37 NW 16 26 29.88 1012 10 16.09344 0 0
6:35 am 06:35 Clear 47 8.6 22 -5.5 37 37 WNW 14 22 29.88 1012 10 16.09344 0 0
6:55 am 06:55 Clear 46 8 22 -5.5 38 38 WNW 15 24 29.91 1013 10 16.09344 0 0
7:15 am 07:15 Clear 44 6.6 22 -5.8 41 41 NW 17 28 29.91 1013 10 16.09344 0 0
7:35 am 07:35 Clear 47 8.1 22 -5.5 38 38 NW 16 26 29.88 1012 10 16.09344 0 0
7:55 am 07:55 Sunny 46 7.5 22 -5.5 40 40 NW 17 28 29.91 1013 10 16.09344 0 0
8:15 am 08:15 Sunny 49 9.3 23 -5.1 36 36 NNW 25 41 29.91 1013 10 16.09344 0 0
8:35 am 08:35 Sunny 49 9.5 23 -5.1 36 36 NNW 24 39 29.91 1013 10 16.09344 0 0
8:55 am 08:55 Sunny 49 9.3 23 -5 36 36 NNW 18 30 29.91 1013 10 16.09344 0 0
9:15 am 09:15 Sunny 49 9.5 23 -4.9 36 36 NW 17 28 29.91 1013 10 16.09344 0 0
9:35 am 09:35 Sunny 49 9.3 23 -4.8 37 37 NW 17 28 29.94 1014 10 16.09344 0 0
9:55 am 09:55 Sunny 49 9.7 23 -4.9 36 36 NW 18 30 29.94 1014 10 16.09344 0 0
10:10 am 10:10 Sunny 50 9.8 23 -4.8 36 36 NW 23 37 29.94 1014 10 16.09344 0 0
10:35 am 10:35 Sunny 50 10.1 24 -4.5 36 36 NNW 23 37 29.94 1014 10 16.09344 0 0
10:55 am 10:55 Sunny 51 10.6 25 -4 36 36 NW 17 28 29.94 1014 10 16.09344 0 0
11:15 am 11:15 Sunny 52 11.1 25 -3.8 35 35 NNW 23 37 29.94 1014 10 16.09344 0 0
11:35 am 11:35 Sunny 53 11.5 26 -3.5 35 35 NNW 22 35 29.94 1014 10 16.09344 0 0
11:55 am 11:55 Sunny 53 11.5 26 -3.5 35 35 NNW 22 35 29.94 1014 10 16.09344 0 0
12:15 pm 12:15 Sunny 53 11.6 26 -3.2 36 36 NNW 25 41 29.94 1014 10 16.09344 0 0
12:35 pm 12:35 Sunny 53 11.7 27 -3 36 36 NNW 21 33 29.94 1014 10 16.09344 0 0
12:55 pm 12:55 Sunny 53 11.6 26 -3.5 35 35 NW 24 39 29.94 1014 10 16.09344 0 0
1:15 pm 13:15 Sunny 53 11.5 24 -4.2 33 33 NNW 21 33 29.91 1013 10 16.09344 0 0
1:35 pm 13:35 Sunny 53 11.4 24 -4.5 33 33 NW 24 39 29.91 1013 10 16.09344 0 0
1:55 pm 13:55 Sunny 52 11.3 24 -4.6 33 33 NNW 21 33 29.91 1013 10 16.09344 0 0
2:15 pm 14:15 Sunny 52 11.3 24 -4.3 34 34 NNW 18 30 29.91 1013 10 16.09344 0 0
2:35 pm 14:35 Sunny 52 11.1 24 -4.2 34 34 NNW 23 37 29.91 1013 10 16.09344 0 0
2:55 pm 14:55 Sunny 52 11 24 -4.3 34 34 NNW 17 28 29.91 1013 10 16.09344 0 0
3:15 pm 15:15 Sunny 51 10.5 24 -4.5 35 35 NNW 21 33 29.94 1014 10 16.09344 0 0
3:35 pm 15:35 Sunny 50 10.2 24 -4.5 36 36 NNW 17 28 29.94 1014 10 16.09344 0 0
3:55 pm 15:55 Sunny 50 10.1 25 -4 37 37 NNW 17 28 29.91 1013 10 16.09344 0 0
4:15 pm 16:15 Sunny 49 9.3 25 -3.7 40 40 NNW 13 20 29.91 1013 10 16.09344 0 0
4:35 pm 16:35 Sunny 48 9 26 -3.5 42 42 NNW 14 22 29.94 1014 10 16.09344 0 0
4:55 pm 16:55 Sunny 47 8.2 26 -3.4 44 44 NNW 15 24 29.97 1015 10 16.09344 0 0
5:15 pm 17:15 Clear 45 7.3 26 -3.5 47 47 NNW 10 17 29.97 1015 10 16.09344 0 0
5:35 pm 17:35 Clear 43 6 25 -3.7 50 50 NW 8 13 29.97 1015 10 16.09344 0 0
5:55 pm 17:55 Clear 41 5 25 -4 53 53 NNW 6 9 30.03 1017 10 16.09344 0 0
6:15 pm 18:15 Clear 40 4.5 25 -4.1 54 54 NNW 8 13 30.03 1017 10 16.09344 0 0
6:35 pm 18:35 Clear 39 4 25 -4.1 56 56 NNW 8 13 30.03 1017 10 16.09344 0 0
6:55 pm 18:55 Clear 36 2.3 23 -4.8 60 60 NW 6 9 30.06 1018 10 16.09344 0 0
7:15 pm 19:15 Clear 35 1.5 23 -5.1 62 62 WNW 5 7 30.06 1018 10 16.09344 0 0
7:35 pm 19:35 Clear 33 0.7 22 -5.3 65 65 WNW 5 7 30.06 1018 10 16.09344 0 0
7:55 pm 19:55 Clear 29 -1.7 20 -6.4 71 71 WNW 5 7 30.09 1019 10 16.09344 0 0
8:15 pm 20:15 Clear 33 0.5 23 -5.1 66 66 NW 9 15 30.09 1019 10 16.09344 0 0
8:35 pm 20:35 Clear 32 0 22 -5.4 67 67 NW 9 15 30.09 1019 10 16.09344 0 0
8:55 pm 20:55 Clear 32 0.1 23 -4.9 69 69 NW 7 11 30.09 1019 10 16.09344 0 0
9:15 pm 21:15 Clear 32 0 23 -5 69 69 NW 7 11 30.09 1019 10 16.09344 0 0
9:35 pm 21:35 Clear 34 1.2 24 -4.2 68 68 NW 9 15 30.09 1019 10 16.09344 0 0
9:55 pm 21:55 Clear 36 2.1 25 -4 64 64 NNW 10 17 30.09 1019 10 16.09344 0 0
10:15 pm 22:15 Clear 37 2.6 25 -3.8 63 63 NNW 9 15 30.09 1019 10 16.09344 0 0
10:35 pm 22:35 Clear 37 2.8 25 -3.8 62 62 NNW 10 17 30.06 1018 10 16.09344 0 0
10:55 pm 22:55 Clear 38 3.4 25 -3.9 59 59 NNW 10 17 30.09 1019 10 16.09344 0 0
11:15 pm 23:15 Clear 37 3 25 -4.1 60 60 NNW 8 13 30.09 1019 10 16.09344 0 0
11:35 pm 23:35 Clear 36 2.4 24 -4.3 62 62 NNW 8 13 30.15 1021 10 16.09344 0 0
11:55 pm 23:55 Clear 35 1.8 24 -4.5 63 63 NNW 7 11 30.15 1021 10 16.09344 0 0

Powered by AerisWeather